Flag for U.S.A. Weather past 2 weeks in Dallas, Texas, U.S.A.

48 °F

Mostly cloudy.

Feels Like: 44 °F
Forecast: 38 / 51 °F
Wind: 8 mph from Northwest

Location: Dallas Love Field

Current Time: Nov 30, 2015 at 6:31:50 PM

Latest Report: Nov 30, 2015 at 4:53 PM

Visibility: 10 mi

Pressure: 30.02 "Hg

Humidity: 80%

Dew point: 42 °F

Location of DallasLocation

Historic Weather in Dallas — Graph


Dallas temperature yesterday

Maximum temperature yesterday: 43 °F (at 2:53 PM)
Minimum temperature yesterday: 39 °F (at 1:53 AM)
Average temperature yesterday: 41 °F

Past Weeks' High & Low Weather Summary

High75 °F (Nov 25, 2:53 PM)100% (Nov 28, 5:53 AM)30.37 "Hg (Nov 28, 5:53 AM)
Low33 °F (Nov 22, 6:57 AM)26% (Nov 22, 1:53 PM)29.45 "Hg (Nov 17, 3:53 AM)
Average54 °F72%30.06 "Hg
* Reported Nov 15 3:53 PM — Nov 30 3:53 PM, Dallas, Weather by CustomWeather, © 2015

Note: Actual official high and low records may vary slightly from our data, if they occured in-between our weather recording intervals... More about our weather records


Dallas weather history for previous 24 hours

Time TempWeatherWind HumidityBarometerVisibility
3:53 PM
Mon, Nov 30
47 °FMostly cloudy.8 mph83%30.01 "Hg10 mi
2:53 PM47 °FMostly cloudy.12 mph83%30.00 "Hg10 mi
2:01 PM46 °FMostly cloudy.8 mph83%30.02 "Hg10 mi
1:01 PM45 °FOvercast.6 mph90%30.04 "Hg10 mi
12:53 PM45 °FLow clouds.7 mph90%30.04 "Hg10 mi
11:53 AM45 °FLow clouds.9 mph90%30.07 "Hg10 mi
10:53 AM44 °FFog.6 mph96%30.09 "Hg5 mi
9:53 AM45 °FFog.8 mph93%30.09 "Hg6 mi
8:53 AM43 °FFog.7 mph100%30.07 "Hg3 mi
7:53 AM42 °FDrizzle. Fog.9 mph100%30.05 "Hg2 mi
6:53 AM43 °FFog.6 mph97%30.03 "Hg2 mi
5:58 AM43 °FDrizzle. Fog.6 mph97%30.03 "Hg1 mi
4:53 AM43 °FLow clouds.6 mph100%30.02 "Hg8 mi
3:53 AM43 °FLow clouds.No wind100%30.02 "Hg8 mi
2:53 AM43 °FLow clouds.3 mph97%30.03 "Hg7 mi
1:53 AM43 °FFog.5 mph97%30.05 "Hg3 mi
12:53 AM42 °FDrizzle. Fog.6 mph100%30.07 "Hg2 mi
11:53 PM
Sun, Nov 29
42 °FDrizzle. Fog.5 mph100%30.07 "Hg2 mi
11:04 PM43 °FDrizzle. Fog.3 mph97%30.09 "Hg2 mi
9:53 PM43 °FLow clouds.5 mph93%30.10 "Hg10 mi
8:53 PM43 °FLight rain. Mostly cloudy.No wind93%30.11 "Hg10 mi
7:53 PM43 °FLight rain. Overcast.6 mph93%30.12 "Hg10 mi
6:53 PM42 °FLight rain. Mostly cloudy.8 mph96%30.11 "Hg10 mi
Weather by CustomWeather, © 2015

See weather overviewHow to use our weather pages